Location: Cleveland
(41.4990°N, 81.6960°W)
Time: 04:06:32
(UTC-05:00)

ISS - Visible Passes

Search period start: 28 November 2023 00:00
Search period end: 08 December 2023 00:00
Orbit: 416 x 418 km, 51.6° (Epoch: 28 November)

Date Brightness Start Highest point End Pass type
(mag) Time Alt. Az. Time Alt. Az. Time Alt. Az.
28 Nov -1.6 17:41:56 10° NNW 17:43:56 15° N 17:45:56 10° NE visible
28 Nov -0.9 19:18:31 10° NW 19:18:56 12° NW 19:18:56 12° NW visible
29 Nov -2.1 18:30:19 10° NW 18:32:39 21° N 18:32:39 21° N visible
30 Nov -1.9 17:42:03 10° NNW 17:44:27 18° NNE 17:46:25 12° NE visible
30 Nov -1.2 19:18:23 10° NW 19:19:21 18° NW 19:19:21 18° NW visible
01 Dec -3.2 18:30:03 10° NW 18:33:11 39° NNE 18:33:11 39° NNE visible
02 Dec -2.6 17:41:43 10° NW 17:44:40 27° NNE 17:47:09 13° E visible
02 Dec -1.7 19:18:17 10° WNW 19:20:05 27° W 19:20:05 27° W visible
03 Dec -3.8 18:29:42 10° NW 18:33:04 85° SW 18:34:14 38° SE visible
04 Dec -3.7 17:41:12 10° NW 17:44:31 57° NNE 17:47:48 10° ESE visible
04 Dec -1.1 19:18:40 10° W 19:20:57 17° SW 19:21:37 16° SSW visible
05 Dec -1.8 18:29:32 10° WNW 18:32:30 29° SW 18:35:27 10° SSE visible
06 Dec -2.9 17:40:41 10° WNW 17:43:57 52° SW 17:47:12 10° SE visible
07 Dec -0.2 18:30:41 10° WSW 18:31:31 11° SW 18:32:23 10° SW visible
